Flag for U.S.A. Weather past 2 weeks in Jacksonville, Florida, U.S.A.

Now
76 °F

Mostly cloudy.


Feels Like: 76 °F
Forecast: 70 / 78 °F
Wind: 5 mph from Northeast

Location: Jacksonville Naval Air Station

Current Time: Sep 23, 2014 at 4:41:38 AM

Latest Report: Sep 23, 2014 at 3:53 AM


Visibility: 10 mi

Pressure: 29.98 "Hg

Humidity: 85%

Dew point: 71 °F

Location of JacksonvilleLocation

Historic Weather in Jacksonville — Graph

°F

Jacksonville temperature yesterday

Maximum temperature yesterday: 91 °F (at 2:53 PM)
Minimum temperature yesterday: 72 °F (at 3:53 AM)
Average temperature yesterday: 80 °F

Past Weeks' High & Low Weather Summary

 TemperatureHumidityPressure
High94 °F (Sep 13, 3:53 PM)91% (Sep 17, 4:53 AM)30.16 "Hg (Sep 17, 4:53 AM)
Low70 °F (Sep 21, 6:53 AM)32% (Sep 21, 4:53 PM)29.84 "Hg (Sep 17, 4:53 PM)
Average82 °F71%30.00 "Hg
* Reported Sep 8 2:53 AM — Sep 23 2:53 AM, Jacksonville, Weather by CustomWeather, © 2014

Note: Actual official high and low records may vary slightly from our data, if they occured in-between our weather recording intervals... More about our weather records

Advertising

Jacksonville weather history for previous 24 hours

 ConditionsComfort  
Time TempWeatherWind HumidityBarometerVisibility
2:53 AM
Sep 23
75 °FMostly cloudy.5 mph79%29.99 "Hg10 mi
1:53 AM76 °FPassing clouds.7 mph74%29.99 "Hg10 mi
12:53 AM77 °FMostly cloudy.12 mph79%30.00 "Hg10 mi
11:53 PM
Sep 22
76 °FHeavy rain. Overcast.No wind85%30.02 "Hg1 mi
10:53 PM79 °FMostly cloudy.9 mph77%30.02 "Hg10 mi
9:53 PM79 °FMostly cloudy.12 mph77%30.01 "Hg10 mi
8:53 PM80 °FMostly cloudy.7 mph69%30.00 "Hg10 mi
7:53 PM81 °FCloudy.9 mph65%29.98 "Hg10 mi
6:53 PM82 °FMostly cloudy.8 mph60%29.98 "Hg10 mi
5:53 PM86 °FCloudy.7 mph46%29.96 "Hg10 mi
4:53 PM88 °FScattered clouds.10 mph39%29.96 "Hg10 mi
3:53 PM88 °FLight rain. Scattered clouds.12 mph43%29.94 "Hg10 mi
2:53 PM91 °FScattered clouds.6 mph44%29.96 "Hg10 mi
1:53 PM90 °FScattered clouds.6 mph45%29.98 "Hg10 mi
12:53 PM88 °FScattered clouds.5 mph52%30.01 "Hg10 mi
11:53 AM87 °FScattered clouds.6 mph53%30.03 "Hg10 mi
10:53 AM82 °FScattered clouds.3 mph70%30.05 "Hg10 mi
9:53 AM78 °FScattered clouds.3 mph74%30.05 "Hg10 mi
8:53 AM76 °FScattered clouds.3 mph77%30.04 "Hg10 mi
7:53 AM72 °FPassing clouds.No wind81%30.01 "Hg10 mi
6:53 AM72 °FPassing clouds.5 mph78%30.00 "Hg10 mi
5:53 AM73 °FPassing clouds.No wind79%29.99 "Hg10 mi
4:53 AM73 °FPassing clouds.3 mph79%29.97 "Hg10 mi
Weather by CustomWeather, © 2014

See weather overviewHow to use our weather pages